| time (UTC) | temp C | wind direction | speed KPH | gust KPH | rain 1hr cm | rain 24hr cm | rain mn cm | humidity % | barometer mb |
| 20260506192019 | 21 | 157 | 9.7 | 14.5 | 0.00 | 0.00 | 0.00 | ||
| 20260506191618 | 21 | 182 | 14.5 | 19.3 | 0.00 | 0.00 | 0.00 | ||
| 20260506191215 | 21 | 144 | 11.3 | 19.3 | 0.00 | 0.00 | 0.00 | ||
| 20260506190813 | 21 | 148 | 12.9 | 17.7 | 0.00 | 0.00 | 0.00 | ||
| 20260506190412 | 21 | 120 | 6.4 | 11.3 | 0.00 | 0.00 | 0.00 | ||
| 20260506190010 | 21 | 137 | 6.4 | 14.5 | 0.00 | 0.00 | 0.00 | ||
| 20260506185601 | 21 | 163 | 6.4 | 11.3 | 0.00 | 0.00 | 0.00 | ||
| 20260506185159 | 21 | 183 | 8.0 | 11.3 | 0.00 | 0.00 | 0.00 | ||
| 20260506184758 | 21 | 160 | 8.0 | 12.9 | 0.00 | 0.00 | 0.00 | ||
| 20260506184357 | 21 | 176 | 11.3 | 20.9 | 0.00 | 0.00 | 0.00 | ||
| 20260506183954 | 21 | 183 | 14.5 | 19.3 | 0.00 | 0.00 | 0.00 | ||
| 20260506183553 | 21 | 177 | 11.3 | 17.7 | 0.00 | 0.00 | 0.00 | ||
| 20260506183151 | 21 | 170 | 17.7 | 29.0 | 0.00 | 0.00 | 0.00 | ||
| 20260506182750 | 21 | 160 | 8.0 | 11.3 | 0.00 | 0.00 | 0.00 | ||
| 20260506182349 | 21 | 165 | 12.9 | 19.3 | 0.00 | 0.00 | 0.00 | ||
| 20260506181946 | 22 | 159 | 16.1 | 29.0 | 0.00 | 0.00 | 0.00 | ||
| 20260506181538 | 22 | 159 | 14.5 | 20.9 | 0.00 | 0.00 | 0.00 | ||
| 20260506181136 | 22 | 169 | 24.1 | 35.4 | 0.00 | 0.00 | 0.00 | ||
| 20260506180735 | 22 | 153 | 19.3 | 29.0 | 0.00 | 0.00 | 0.00 | ||
| 20260506180333 | 22 | 163 | 14.5 | 24.1 | 0.00 | 0.00 | 0.00 | ||
| 20260506175931 | 22 | 164 | 22.5 | 41.8 | 0.00 | 0.00 | 0.00 | ||
| 20260506175530 | 22 | 158 | 19.3 | 30.6 | 0.00 | 0.00 | 0.00 | ||
| 20260506175129 | 22 | 168 | 17.7 | 30.6 | 0.00 | 0.00 | 0.00 | ||
| 20260506174726 | 22 | 173 | 14.5 | 20.9 | 0.00 | 0.00 | 0.00 | ||
| 20260506174325 | 22 | 158 | 12.9 | 17.7 | 0.00 | 0.00 | 0.00 | ||
| 20260506173924 | 22 | 155 | 11.3 | 16.1 | 0.00 | 0.00 | 0.00 | ||
| 20260506173516 | 22 | 169 | 16.1 | 19.3 | 0.00 | 0.00 | 0.00 | ||
| 20260506173113 | 22 | 176 | 12.9 | 25.7 | 0.00 | 0.00 | 0.00 | ||
| 20260506172712 | 22 | 181 | 14.5 | 20.9 | 0.00 | 0.00 | 0.00 | ||
| 20260506172311 | 23 | 169 | 19.3 | 30.6 | 0.00 | 0.00 | 0.00 | ||
| 20260506171909 | 23 | 175 | 14.5 | 22.5 | 0.00 | 0.00 | 0.00 | ||
| 20260506171508 | 23 | 168 | 16.1 | 22.5 | 0.00 | 0.00 | 0.00 | ||
| 20260506171105 | 23 | 148 | 17.7 | 29.0 | 0.00 | 0.00 | 0.00 | ||
| 20260506170704 | 23 | 161 | 16.1 | 20.9 | 0.00 | 0.00 | 0.00 | ||
| 20260506170303 | 23 | 166 | 16.1 | 29.0 | 0.00 | 0.00 | 0.00 | ||
| 20260506165901 | 23 | 158 | 14.5 | 19.3 | 0.00 | 0.00 | 0.00 | ||
| 20260506165452 | 23 | 177 | 20.9 | 27.4 | 0.00 | 0.00 | 0.00 | ||
| 20260506165050 | 23 | 172 | 20.9 | 29.0 | 0.00 | 0.00 | 0.00 | ||
| 20260506164649 | 23 | 177 | 20.9 | 27.4 | 0.00 | 0.00 | 0.00 | ||
| 20260506164248 | 23 | 178 | 27.4 | 37.0 | 0.00 | 0.00 | 0.00 | ||
| 20260506163845 | 23 | 185 | 20.9 | 30.6 | 0.00 | 0.00 | 0.00 | ||
| 20260506163444 | 24 | 187 | 19.3 | 25.7 | 0.00 | 0.00 | 0.00 | ||
| 20260506163042 | 24 | 181 | 24.1 | 37.0 | 0.00 | 0.00 | 0.00 | ||
| 20260506162641 | 24 | 175 | 19.3 | 30.6 | 0.00 | 0.00 | 0.00 | ||
| 20260506162239 | 23 | 170 | 16.1 | 25.7 | 0.00 | 0.00 | 0.00 | ||
| 20260506161837 | 24 | 157 | 19.3 | 25.7 | 0.00 | 0.00 | 0.00 | ||
| 20260506161429 | 23 | 168 | 20.9 | 30.6 | 0.00 | 0.00 | 0.00 | ||
| 20260506161028 | 23 | 178 | 24.1 | 32.2 | 0.00 | 0.00 | 0.00 | ||
| 20260506160627 | 23 | 177 | 25.7 | 37.0 | 0.00 | 0.00 | 0.00 | ||
| 20260506160225 | 23 | 160 | 22.5 | 38.6 | 0.00 | 0.00 | 0.00 | ||
| 20260506155823 | 23 | 178 | 22.5 | 33.8 | 0.00 | 0.00 | 0.00 | ||
| 20260506155422 | 25 | 165 | 20.9 | 30.6 | 0.00 | 0.00 | 0.00 | ||
| 20260506155020 | 25 | 140 | 17.7 | 22.5 | 0.00 | 0.00 | 0.00 | ||
| 20260506154618 | 26 | 164 | 19.3 | 30.6 | 0.00 | 0.00 | 0.00 | ||
| 20260506154217 | 26 | 166 | 11.3 | 16.1 | 0.00 | 0.00 | 0.00 | ||
| 20260506153815 | 25 | 202 | 16.1 | 22.5 | 0.00 | 0.00 | 0.00 | ||
| 20260506153407 | 25 | 175 | 20.9 | 27.4 | 0.00 | 0.00 | 0.00 | ||
| 20260506153004 | 25 | 180 | 22.5 | 27.4 | 0.00 | 0.00 | 0.00 | ||
| 20260506152603 | 26 | 178 | 17.7 | 29.0 | 0.00 | 0.00 | 0.00 | ||
| 20260506152202 | 25 | 170 | 16.1 | 22.5 | 0.00 | 0.00 | 0.00 | ||
| 20260506151800 | 25 | 177 | 17.7 | 24.1 | 0.00 | 0.00 | 0.00 | ||
| 20260506151358 | 25 | 178 | 17.7 | 27.4 | 0.00 | 0.00 | 0.00 | ||
| 20260506150956 | 25 | 180 | 20.9 | 32.2 | 0.00 | 0.00 | 0.00 | ||
| 20260506150555 | 25 | 203 | 19.3 | 29.0 | 0.00 | 0.00 | 0.00 | ||
| 20260506150154 | 25 | 188 | 16.1 | 25.7 | 0.00 | 0.00 | 0.00 | ||
| 20260506145752 | 25 | 185 | 19.3 | 30.6 | 0.00 | 0.00 | 0.00 | ||
| 20260506145343 | 25 | 155 | 14.5 | 22.5 | 0.00 | 0.00 | 0.00 | ||
| 20260506144941 | 25 | 173 | 14.5 | 22.5 | 0.00 | 0.00 | 0.00 | ||
| 20260506144540 | 26 | 186 | 12.9 | 17.7 | 0.00 | 0.00 | 0.00 | ||
| 20260506144140 | 25 | 208 | 14.5 | 25.7 | 0.00 | 0.00 | 0.00 | ||
| 20260506143737 | 25 | 193 | 12.9 | 19.3 | 0.00 | 0.00 | 0.00 | ||
| 20260506143336 | 25 | 201 | 14.5 | 25.7 | 0.00 | 0.00 | 0.00 | ||
| 20260506142934 | 26 | 194 | 9.7 | 16.1 | 0.00 | 0.00 | 0.00 | ||
| 20260506142533 | 25 | 207 | 17.7 | 24.1 | 0.00 | 0.00 | 0.00 | ||
| 20260506142131 | 26 | 248 | 6.4 | 12.9 | 0.00 | 0.00 | 0.00 | ||
| 20260506141729 | 25 | 225 | 11.3 | 14.5 | 0.00 | 0.00 | 0.00 | ||
| 20260506141321 | 25 | 214 | 11.3 | 16.1 | 0.00 | 0.00 | 0.00 | ||
| 20260506140919 | 25 | 202 | 6.4 | 14.5 | 0.00 | 0.00 | 0.00 | ||
| 20260506140517 | 24 | 216 | 12.9 | 20.9 | 0.00 | 0.00 | 0.00 | ||
| 20260506140116 | 24 | 223 | 12.9 | 16.1 | 0.00 | 0.00 | 0.00 | ||
| 20260506135714 | 25 | 217 | 11.3 | 19.3 | 0.00 | 0.00 | 0.00 | ||
| 20260506135313 | 25 | 219 | 9.7 | 12.9 | 0.00 | 0.00 | 0.00 | ||
| 20260506134911 | 25 | 207 | 12.9 | 19.3 | 0.00 | 0.00 | 0.00 | ||
| 20260506134509 | 25 | 186 | 16.1 | 20.9 | 0.00 | 0.00 | 0.00 | ||
| 20260506134108 | 24 | 195 | 12.9 | 22.5 | 0.00 | 0.00 | 0.00 | ||
| 20260506133706 | 24 | 201 | 12.9 | 16.1 | 0.00 | 0.00 | 0.00 | ||
| 20260506133258 | 24 | 200 | 14.5 | 20.9 | 0.00 | 0.00 | 0.00 | ||
| 20260506132855 | 25 | 212 | 9.7 | 16.1 | 0.00 | 0.00 | 0.00 | ||
| 20260506132454 | 25 | 213 | 14.5 | 24.1 | 0.00 | 0.00 | 0.00 | ||
| 20260506132053 | 25 | 236 | 9.7 | 16.1 | 0.00 | 0.00 | 0.00 | ||
| 20260506131652 | 25 | 223 | 11.3 | 16.1 | 0.00 | 0.00 | 0.00 | ||
| 20260506131249 | 26 | 205 | 9.7 | 17.7 | 0.00 | 0.00 | 0.00 | ||
| 20260506130847 | 25 | 212 | 12.9 | 20.9 | 0.00 | 0.00 | 0.00 | ||
| 20260506130447 | 25 | 255 | 11.3 | 16.1 | 0.00 | 0.00 | 0.00 | ||
| 20260506130046 | 25 | 212 | 11.3 | 16.1 | 0.00 | 0.00 | 0.00 | ||
| 20260506125643 | 26 | 148 | 6.4 | 11.3 | 0.00 | 0.00 | 0.00 | ||
| 20260506125235 | 26 | 136 | 9.7 | 12.9 | 0.00 | 0.00 | 0.00 | ||
| 20260506124833 | 27 | 146 | 9.7 | 16.1 | 0.00 | 0.00 | 0.00 | ||
| 20260506124432 | 27 | 189 | 4.8 | 8.0 | 0.00 | 0.00 | 0.00 | ||
| 20260506124031 | 26 | 200 | 4.8 | 9.7 | 0.00 | 0.00 | 0.00 | ||
| 20260506123628 | 26 | 180 | 6.4 | 11.3 | 0.00 | 0.00 | 0.00 | ||
| 20260506123227 | 25 | 201 | 8.0 | 14.5 | 0.00 | 0.00 | 0.00 | ||
| 20260506122825 | 24 | 203 | 8.0 | 16.1 | 0.00 | 0.00 | 0.00 | ||
| 20260506122424 | 25 | 215 | 12.9 | 16.1 | 0.00 | 0.00 | 0.00 | ||
| 20260506122022 | 25 | 224 | 9.7 | 14.5 | 0.00 | 0.00 | 0.00 | ||
| 20260506121620 | 24 | 217 | 12.9 | 17.7 | 0.00 | 0.00 | 0.00 | ||
| 20260506121212 | 24 | 205 | 14.5 | 22.5 | 0.00 | 0.00 | 0.00 | ||
| 20260506120810 | 24 | 219 | 12.9 | 19.3 | 0.00 | 0.00 | 0.00 | ||
| 20260506120408 | 24 | 206 | 12.9 | 20.9 | 0.00 | 0.00 | 0.00 | ||
| 20260506120007 | 24 | 220 | 12.9 | 17.7 | 0.00 | 0.00 | 0.00 | ||
| 20260506115605 | 25 | 228 | 11.3 | 16.1 | 0.00 | 0.00 | 0.00 | ||
| 20260506115204 | 25 | 233 | 17.7 | 24.1 | 0.00 | 0.00 | 0.00 | ||
| 20260506114801 | 25 | 225 | 8.0 | 12.9 | 0.00 | 0.00 | 0.00 | ||
| 20260506114400 | 25 | 213 | 12.9 | 20.9 | 0.00 | 0.00 | 0.00 | ||
| 20260506113959 | 25 | 219 | 12.9 | 20.9 | 0.00 | 0.00 | 0.00 | ||
| 20260506113557 | 25 | 247 | 9.7 | 14.5 | 0.00 | 0.00 | 0.00 | ||
| 20260506113149 | 24 | 230 | 14.5 | 22.5 | 0.00 | 0.00 | 0.00 | ||
| 20260506112746 | 25 | 233 | 14.5 | 22.5 | 0.00 | 0.00 | 0.00 | ||
| 20260506112345 | 25 | 232 | 11.3 | 22.5 | 0.00 | 0.00 | 0.00 | ||
| 20260506111944 | 24 | 273 | 14.5 | 25.7 | 0.00 | 0.00 | 0.00 | ||
| 20260506111542 | 25 | 283 | 14.5 | 29.0 | 0.00 | 0.00 | 0.00 | ||
| 20260506111140 | 25 | 263 | 11.3 | 19.3 | 0.00 | 0.00 | 0.00 | ||
| 20260506110738 | 24 | 251 | 12.9 | 20.9 | 0.00 | 0.00 | 0.00 | ||
| 20260506110337 | 25 | 237 | 11.3 | 14.5 | 0.00 | 0.00 | 0.00 | ||
| 20260506105936 | 23 | 227 | 14.5 | 22.5 | 0.00 | 0.00 | 0.00 | ||
| 20260506105533 | 24 | 252 | 4.8 | 8.0 | 0.00 | 0.00 | 0.00 | ||
| 20260506105125 | 24 | 228 | 11.3 | 20.9 | 0.00 | 0.00 | 0.00 | ||
| 20260506104723 | 23 | 236 | 11.3 | 16.1 | 0.00 | 0.00 | 0.00 | ||
| 20260506104322 | 23 | 231 | 12.9 | 19.3 | 0.00 | 0.00 | 0.00 | ||
| 20260506103920 | 23 | 255 | 12.9 | 16.1 | 0.00 | 0.00 | 0.00 | ||
| 20260506103518 | 23 | 227 | 6.4 | 11.3 | 0.00 | 0.00 | 0.00 | ||
| 20260506103117 | 23 | 222 | 11.3 | 20.9 | 0.00 | 0.00 | 0.00 | ||
| 20260506102716 | 23 | 249 | 8.0 | 14.5 | 0.00 | 0.00 | 0.00 | ||
| 20260506102315 | 23 | 282 | 12.9 | 16.1 | 0.00 | 0.00 | 0.00 | ||
| 20260506101912 | 24 | 257 | 6.4 | 12.9 | 0.00 | 0.00 | 0.00 | ||
| 20260506101511 | 23 | 250 | 9.7 | 16.1 | 0.00 | 0.00 | 0.00 | ||
| 20260506101103 | 23 | 267 | 9.7 | 14.5 | 0.00 | 0.00 | 0.00 | ||
| 20260506100701 | 23 | 258 | 12.9 | 16.1 | 0.00 | 0.00 | 0.00 | ||
| 20260506100259 | 24 | 279 | 11.3 | 19.3 | 0.00 | 0.00 | 0.00 | ||
| 20260506095858 | 23 | 236 | 8.0 | 14.5 | 0.00 | 0.00 | 0.00 | ||
| 20260506095456 | 23 | 233 | 11.3 | 19.3 | 0.00 | 0.00 | 0.00 | ||
| 20260506095055 | 23 | 211 | 11.3 | 17.7 | 0.00 | 0.00 | 0.00 | ||
| 20260506094652 | 23 | 241 | 9.7 | 14.5 | 0.00 | 0.00 | 0.00 | ||
| 20260506094251 | 23 | 266 | 9.7 | 19.3 | 0.00 | 0.00 | 0.00 | ||
| 20260506093850 | 25 | 255 | 8.0 | 12.9 | 0.00 | 0.00 | 0.00 | ||
| 20260506093448 | 23 | 256 | 14.5 | 22.5 | 0.00 | 0.00 | 0.00 | ||
| 20260506093039 | 23 | 270 | 12.9 | 16.1 | 0.00 | 0.00 | 0.00 | ||
| 20260506092637 | 22 | 269 | 9.7 | 17.7 | 0.00 | 0.00 | 0.00 | ||
| 20260506092236 | 22 | 212 | 11.3 | 17.7 | 0.00 | 0.00 | 0.00 | ||
| 20260506091835 | 23 | 223 | 11.3 | 16.1 | 0.00 | 0.00 | 0.00 | ||
| 20260506091433 | 23 | 271 | 14.5 | 20.9 | 0.00 | 0.00 | 0.00 | ||
| 20260506091031 | 23 | 256 | 12.9 | 20.9 | 0.00 | 0.00 | 0.00 | ||
| 20260506090629 | 23 | 250 | 9.7 | 17.7 | 0.00 | 0.00 | 0.00 | ||
| 20260506090228 | 22 | 243 | 14.5 | 22.5 | 0.00 | 0.00 | 0.00 | ||
| 20260506085827 | 22 | 211 | 11.3 | 22.5 | 0.00 | 0.00 | 0.00 | ||
| 20260506085423 | 22 | 211 | 11.3 | 17.7 | 0.00 | 0.00 | 0.00 | ||
| 20260506085016 | 22 | 233 | 12.9 | 20.9 | 0.00 | 0.00 | 0.00 | ||
| 20260506084614 | 22 | 277 | 12.9 | 17.7 | 0.00 | 0.00 | 0.00 | ||
| 20260506084212 | 22 | 255 | 14.5 | 25.7 | 0.00 | 0.00 | 0.00 | ||
| 20260506083810 | 22 | 284 | 11.3 | 16.1 | 0.00 | 0.00 | 0.00 | ||
| 20260506083408 | 22 | 256 | 9.7 | 19.3 | 0.00 | 0.00 | 0.00 | ||
| 20260506083007 | 22 | 252 | 12.9 | 22.5 | 0.00 | 0.00 | 0.00 | ||
| 20260506082605 | 22 | 246 | 11.3 | 22.5 | 0.00 | 0.00 | 0.00 | ||
| 20260506082203 | 22 | 206 | 6.4 | 9.7 | 0.00 | 0.00 | 0.00 | ||
| 20260506081802 | 22 | 236 | 9.7 | 12.9 | 0.00 | 0.00 | 0.00 | ||
| 20260506081400 | 21 | 242 | 14.5 | 20.9 | 0.00 | 0.00 | 0.00 | ||
| 20260506080952 | 21 | 258 | 11.3 | 14.5 | 0.00 | 0.00 | 0.00 | ||
| 20260506080550 | 22 | 233 | 9.7 | 19.3 | 0.00 | 0.00 | 0.00 | ||
| 20260506080148 | 21 | 200 | 12.9 | 22.5 | 0.00 | 0.00 | 0.00 | ||
| 20260506073337 | 21 | 235 | 12.9 | 17.7 | 0.00 | 0.00 | 0.00 | ||
| 20260506072928 | 21 | 239 | 14.5 | 24.1 | 0.00 | 0.00 | 0.00 | ||
| 20260506072526 | 21 | 213 | 8.0 | 11.3 | 0.00 | 0.00 | 0.00 | ||
| 20260506072125 | 21 | 209 | 8.0 | 16.1 | 0.00 | 0.00 | 0.00 | ||
| 20260506071724 | 21 | 211 | 11.3 | 19.3 | 0.00 | 0.00 | 0.00 | ||
| 20260506071321 | 21 | 208 | 17.7 | 25.7 | 0.00 | 0.00 | 0.00 | ||
| 20260506070920 | 23 | 225 | 11.3 | 19.3 | 0.00 | 0.00 | 0.00 | ||
| 20260506070518 | 24 | 231 | 14.5 | 24.1 | 0.00 | 0.00 | 0.00 | ||
| 20260506070117 | 22 | 229 | 11.3 | 16.1 | 0.00 | 0.00 | 0.00 | ||
| 20260506062456 | 20 | 200 | 9.7 | 14.5 | 0.00 | 0.00 | 0.00 | ||
| 20260506062054 | 21 | 209 | 9.7 | 16.1 | 0.00 | 0.00 | 0.00 | ||
| 20260506061653 | 21 | 168 | 11.3 | 16.1 | 0.00 | 0.00 | 0.00 | ||
| 20260506061251 | 21 | 153 | 6.4 | 12.9 | 0.00 | 0.00 | 0.00 | ||
| 20260506060843 | 20 | 146 | 12.9 | 17.7 | 0.00 | 0.00 | 0.00 | ||
| 20260506060440 | 20 | 142 | 12.9 | 22.5 | 0.00 | 0.00 | 0.00 | ||
| 20260506051213 | 18 | 152 | 14.5 | 27.4 | 0.00 | 0.00 | 0.00 | ||
| 20260506050812 | 18 | 157 | 12.9 | 17.7 | 0.00 | 0.00 | 0.00 | ||
| 20260506050410 | 18 | 163 | 16.1 | 25.7 | 0.00 | 0.00 | 0.00 | ||
| 20260506044355 | 17 | 144 | 14.5 | 25.7 | 0.00 | 0.00 | 0.00 | ||
| 20260506043954 | 18 | 132 | 9.7 | 12.9 | 0.00 | 0.00 | 0.00 | ||
| 20260506043552 | 17 | 137 | 11.3 | 14.5 | 0.00 | 0.00 | 0.00 | ||
| 20260506043150 | 18 | 184 | 8.0 | 14.5 | 0.00 | 0.00 | 0.00 | ||
| 20260506042749 | 17 | 157 | 6.4 | 11.3 | 0.00 | 0.00 | 0.00 | ||
| 20260506042347 | 17 | 181 | 12.9 | 25.7 | 0.00 | 0.00 | 0.00 | ||
| 20260506041945 | 17 | 176 | 16.1 | 24.1 | 0.00 | 0.00 | 0.00 | ||
| 20260506041544 | 17 | 165 | 14.5 | 22.5 | 0.00 | 0.00 | 0.00 | ||
| 20260506041142 | 17 | 167 | 14.5 | 22.5 | 0.00 | 0.00 | 0.00 | ||
| 20260506040734 | 17 | 152 | 12.9 | 19.3 | 0.00 | 0.00 | 0.00 | ||
| 20260506040331 | 17 | 161 | 11.3 | 17.7 | 0.00 | 0.00 | 0.00 | ||
| 20260506035930 | 17 | 153 | 12.9 | 17.7 | 0.00 | 0.00 | 0.00 | ||
| 20260506035529 | 17 | 147 | 12.9 | 17.7 | 0.00 | 0.00 | 0.00 | ||
| 20260506035127 | 17 | 152 | 12.9 | 16.1 | 0.00 | 0.00 | 0.00 | ||
| 20260506034725 | 16 | 144 | 11.3 | 19.3 | 0.00 | 0.00 | 0.00 | ||
| 20260506034323 | 16 | 146 | 8.0 | 14.5 | 0.00 | 0.00 | 0.00 | ||
| 20260506033922 | 16 | 156 | 11.3 | 16.1 | 0.00 | 0.00 | 0.00 | ||
| 20260506033522 | 17 | 137 | 8.0 | 16.1 | 0.00 | 0.00 | 0.00 | ||
| 20260506033120 | 17 | 144 | 6.4 | 8.0 | 0.00 | 0.00 | 0.00 | ||
| 20260506032711 | 17 | 133 | 6.4 | 11.3 | 0.00 | 0.00 | 0.00 | ||
| 20260506032309 | 17 | 151 | 11.3 | 17.7 | 0.00 | 0.00 | 0.00 | ||
| 20260506031908 | 17 | 157 | 8.0 | 12.9 | 0.00 | 0.00 | 0.00 | ||
| 20260506031507 | 17 | 151 | 8.0 | 14.5 | 0.00 | 0.00 | 0.00 | ||
| 20260506031104 | 17 | 157 | 8.0 | 14.5 | 0.00 | 0.00 | 0.00 | ||
| 20260506030703 | 17 | 155 | 8.0 | 12.9 | 0.00 | 0.00 | 0.00 | ||
| 20260506030301 | 17 | 170 | 12.9 | 17.7 | 0.00 | 0.00 | 0.00 | ||
| 20260506025900 | 17 | 185 | 12.9 | 17.7 | 0.00 | 0.00 | 0.00 | ||
| 20260506025458 | 17 | 163 | 8.0 | 12.9 | 0.00 | 0.00 | 0.00 | ||
| 20260506025056 | 17 | 162 | 6.4 | 11.3 | 0.00 | 0.00 | 0.00 | ||
| 20260506024648 | 17 | 164 | 14.5 | 19.3 | 0.00 | 0.00 | 0.00 | ||
| 20260506024246 | 17 | 161 | 9.7 | 16.1 | 0.00 | 0.00 | 0.00 | ||
| 20260506023844 | 17 | 178 | 8.0 | 12.9 | 0.00 | 0.00 | 0.00 | ||
| 20260506023443 | 17 | 165 | 8.0 | 12.9 | 0.00 | 0.00 | 0.00 | ||
| 20260506023041 | 17 | 186 | 9.7 | 16.1 | 0.00 | 0.00 | 0.00 | ||
| 20260506022640 | 18 | 200 | 8.0 | 12.9 | 0.00 | 0.00 | 0.00 | ||
| 20260506022239 | 17 | 224 | 11.3 | 17.7 | 0.00 | 0.00 | 0.00 | ||
| 20260506021836 | 17 | 227 | 6.4 | 11.3 | 0.00 | 0.00 | 0.00 | ||
| 20260506021435 | 17 | 192 | 9.7 | 14.5 | 0.00 | 0.00 | 0.00 | ||
| 20260506021034 | 17 | 170 | 17.7 | 24.1 | 0.00 | 0.00 | 0.00 | ||
| 20260506020626 | 17 | 174 | 19.3 | 27.4 | 0.00 | 0.00 | 0.00 | ||
| 20260506020223 | 17 | 184 | 12.9 | 22.5 | 0.00 | 0.00 | 0.00 | ||
| 20260506015822 | 17 | 173 | 12.9 | 20.9 | 0.00 | 0.00 | 0.00 | ||
| 20260506015421 | 18 | 165 | 16.1 | 25.7 | 0.00 | 0.00 | 0.00 | ||
| 20260506015019 | 18 | 170 | 19.3 | 30.6 | 0.00 | 0.00 | 0.00 | ||
| 20260506014617 | 18 | 162 | 16.1 | 30.6 | 0.00 | 0.00 | 0.00 | ||
| 20260506014215 | 17 | 170 | 20.9 | 29.0 | 0.00 | 0.00 | 0.00 | ||
| 20260506013814 | 18 | 170 | 14.5 | 22.5 | 0.00 | 0.00 | 0.00 | ||
| 20260506013010 | 18 | 194 | 14.5 | 17.7 | 0.00 | 0.00 | 0.00 | ||
| 20260506012200 | 18 | 191 | 19.3 | 27.4 | 0.00 | 0.00 | 0.00 | ||
| 20260506011759 | 17 | 184 | 17.7 | 29.0 | 0.00 | 0.00 | 0.00 | ||
| 20260506011358 | 17 | 164 | 16.1 | 24.1 | 0.00 | 0.00 | 0.00 | ||
| 20260506010955 | 17 | 166 | 19.3 | 27.4 | 0.00 | 0.00 | 0.00 | ||
| 20260506010554 | 17 | 150 | 17.7 | 25.7 | 0.00 | 0.00 | 0.00 | ||
| 20260506010152 | 18 | 151 | 19.3 | 33.8 | 0.00 | 0.00 | 0.00 | ||
| 20260506005751 | 18 | 152 | 16.1 | 25.7 | 0.00 | 0.00 | 0.00 | ||
| 20260506005349 | 18 | 155 | 17.7 | 25.7 | 0.00 | 0.00 | 0.00 | ||
| 20260506004947 | 18 | 169 | 19.3 | 29.0 | 0.00 | 0.00 | 0.00 | ||
| 20260506004539 | 18 | 158 | 17.7 | 27.4 | 0.00 | 0.00 | 0.00 | ||
| 20260506004138 | 18 | 152 | 22.5 | 37.0 | 0.00 | 0.00 | 0.00 | ||
| 20260506003735 | 18 | 151 | 17.7 | 27.4 | 0.00 | 0.00 | 0.00 | ||
| 20260506003334 | 18 | 151 | 19.3 | 32.2 | 0.00 | 0.00 | 0.00 | ||
| 20260506002933 | 18 | 143 | 22.5 | 27.4 | 0.00 | 0.00 | 0.00 | ||
| 20260506002532 | 18 | 149 | 16.1 | 22.5 | 0.00 | 0.00 | 0.00 | ||
| 20260506002129 | 18 | 152 | 14.5 | 24.1 | 0.00 | 0.00 | 0.00 | ||
| 20260506001728 | 18 | 153 | 17.7 | 29.0 | 0.00 | 0.00 | 0.00 | ||
| 20260506001327 | 18 | 163 | 12.9 | 19.3 | 0.00 | 0.00 | 0.00 | ||
| 20260506000925 | 18 | 169 | 20.9 | 35.4 | 0.00 | 0.00 | 0.00 | ||
| 20260506000517 | 18 | 181 | 20.9 | 29.0 | 0.00 | 0.00 | 0.00 | ||
| 20260506000114 | 18 | 176 | 17.7 | 25.7 | 0.00 | 0.00 | 0.00 | ||
| 20260505235713 | 18 | 168 | 20.9 | 32.2 | 0.00 | 0.00 | 0.00 | ||
| 20260505235312 | 18 | 178 | 19.3 | 30.6 | 0.00 | 0.00 | 0.00 | ||
| 20260505234910 | 18 | 168 | 22.5 | 35.4 | 0.00 | 0.00 | 0.00 | ||
| 20260505234508 | 18 | 165 | 20.9 | 32.2 | 0.00 | 0.00 | 0.00 | ||
| 20260505234106 | 18 | 187 | 24.1 | 35.4 | 0.00 | 0.00 | 0.00 | ||
| 20260505233705 | 18 | 176 | 24.1 | 35.4 | 0.00 | 0.00 | 0.00 | ||
| 20260505233304 | 18 | 183 | 24.1 | 35.4 | 0.00 | 0.00 | 0.00 | ||
| 20260505232901 | 18 | 175 | 20.9 | 29.0 | 0.00 | 0.00 | 0.00 | ||
| 20260505232453 | 18 | 171 | 19.3 | 29.0 | 0.00 | 0.00 | 0.00 | ||
| 20260505232051 | 19 | 181 | 17.7 | 22.5 | 0.00 | 0.00 | 0.00 | ||
| 20260505231650 | 19 | 175 | 24.1 | 32.2 | 0.00 | 0.00 | 0.00 | ||
| 20260505231248 | 19 | 180 | 24.1 | 32.2 | 0.00 | 0.00 | 0.00 | ||
| 20260505230846 | 19 | 156 | 16.1 | 24.1 | 0.00 | 0.00 | 0.00 | ||
| 20260505230445 | 19 | 153 | 19.3 | 27.4 | 0.00 | 0.00 | 0.00 | ||
| 20260505230043 | 19 | 167 | 17.7 | 25.7 | 0.00 | 0.00 | 0.00 | ||
| 20260505225642 | 19 | 178 | 17.7 | 25.7 | 0.00 | 0.00 | 0.00 | ||
| 20260505225240 | 19 | 166 | 14.5 | 19.3 | 0.00 | 0.00 | 0.00 | ||
| 20260505224839 | 19 | 156 | 12.9 | 19.3 | 0.00 | 0.00 | 0.00 | ||
| 20260505224431 | 19 | 177 | 9.7 | 17.7 | 0.00 | 0.00 | 0.00 | ||
| 20260505224029 | 19 | 157 | 6.4 | 14.5 | 0.00 | 0.00 | 0.00 | ||
| 20260505223626 | 19 | 177 | 12.9 | 16.1 | 0.00 | 0.00 | 0.00 | ||
| 20260505223225 | 20 | 181 | 14.5 | 20.9 | 0.00 | 0.00 | 0.00 | ||
| 20260505222824 | 20 | 164 | 20.9 | 29.0 | 0.00 | 0.00 | 0.00 | ||
| 20260505222423 | 20 | 151 | 19.3 | 33.8 | 0.00 | 0.00 | 0.00 | ||
| 20260505222020 | 20 | 167 | 14.5 | 19.3 | 0.00 | 0.00 | 0.00 | ||
| 20260505221618 | 20 | 176 | 14.5 | 20.9 | 0.00 | 0.00 | 0.00 | ||
| 20260505221217 | 20 | 152 | 17.7 | 24.1 | 0.00 | 0.00 | 0.00 | ||
| 20260505220815 | 20 | 173 | 19.3 | 29.0 | 0.00 | 0.00 | 0.00 | ||
| 20260505220405 | 20 | 165 | 14.5 | 17.7 | 0.00 | 0.00 | 0.00 | ||
| 20260505220004 | 20 | 153 | 12.9 | 25.7 | 0.00 | 0.00 | 0.00 | ||
| 20260505215602 | 20 | 171 | 20.9 | 30.6 | 0.00 | 0.00 | 0.00 | ||
| 20260505215202 | 20 | 154 | 16.1 | 20.9 | 0.00 | 0.00 | 0.00 | ||
| 20260505214800 | 20 | 166 | 14.5 | 20.9 | 0.00 | 0.00 | 0.00 | ||
| 20260505214358 | 20 | 164 | 25.7 | 33.8 | 0.00 | 0.00 | 0.00 | ||
| 20260505213956 | 20 | 152 | 17.7 | 27.4 | 0.00 | 0.00 | 0.00 | ||
| 20260505213555 | 20 | 151 | 16.1 | 25.7 | 0.00 | 0.00 | 0.00 | ||
| 20260505213154 | 20 | 151 | 17.7 | 24.1 | 0.00 | 0.00 | 0.00 | ||
| 20260505212751 | 20 | 143 | 14.5 | 25.7 | 0.00 | 0.00 | 0.00 | ||
| 20260505212343 | 20 | 150 | 12.9 | 20.9 | 0.00 | 0.00 | 0.00 | ||
| 20260505211941 | 20 | 158 | 16.1 | 20.9 | 0.00 | 0.00 | 0.00 | ||
| 20260505211540 | 20 | 148 | 14.5 | 17.7 | 0.00 | 0.00 | 0.00 | ||
| 20260505211138 | 20 | 150 | 16.1 | 22.5 | 0.00 | 0.00 | 0.00 | ||
| 20260505210736 | 20 | 154 | 12.9 | 20.9 | 0.00 | 0.00 | 0.00 | ||
| 20260505210335 | 20 | 151 | 11.3 | 19.3 | 0.00 | 0.00 | 0.00 | ||
| 20260505205933 | 20 | 148 | 16.1 | 22.5 | 0.00 | 0.00 | 0.00 | ||
| 20260505205531 | 20 | 173 | 17.7 | 25.7 | 0.00 | 0.00 | 0.00 | ||
| 20260505205130 | 20 | 178 | 17.7 | 22.5 | 0.00 | 0.00 | 0.00 | ||
| 20260505204728 | 21 | 182 | 22.5 | 32.2 | 0.00 | 0.00 | 0.00 | ||
| 20260505204320 | 20 | 175 | 17.7 | 29.0 | 0.00 | 0.00 | 0.00 | ||
| 20260505203918 | 21 | 186 | 17.7 | 25.7 | 0.00 | 0.00 | 0.00 | ||
| 20260505203516 | 21 | 161 | 22.5 | 29.0 | 0.00 | 0.00 | 0.00 | ||
| 20260505203115 | 21 | 192 | 19.3 | 32.2 | 0.00 | 0.00 | 0.00 | ||
| 20260505202713 | 21 | 193 | 19.3 | 32.2 | 0.00 | 0.00 | 0.00 | ||
| 20260505202312 | 21 | 172 | 17.7 | 24.1 | 0.00 | 0.00 | 0.00 | ||
| 20260505201910 | 21 | 193 | 12.9 | 19.3 | 0.00 | 0.00 | 0.00 | ||
| 20260505201509 | 21 | 181 | 17.7 | 24.1 | 0.00 | 0.00 | 0.00 | ||
| 20260505201108 | 21 | 196 | 20.9 | 40.2 | 0.00 | 0.00 | 0.00 | ||
| 20260505200706 | 21 | 172 | 25.7 | 37.0 | 0.00 | 0.00 | 0.00 | ||
| 20260505200257 | 21 | 196 | 19.3 | 30.6 | 0.00 | 0.00 | 0.00 | ||
| 20260505195855 | 21 | 176 | 16.1 | 30.6 | 0.00 | 0.00 | 0.00 | ||
| 20260505195454 | 21 | 194 | 14.5 | 19.3 | 0.00 | 0.00 | 0.00 | ||
| 20260505195053 | 21 | 173 | 16.1 | 25.7 | 0.00 | 0.00 | 0.00 | ||
| 20260505194650 | 21 | 192 | 14.5 | 19.3 | 0.00 | 0.00 | 0.00 | ||
| 20260505194249 | 21 | 180 | 17.7 | 27.4 | 0.00 | 0.00 | 0.00 | ||
| 20260505193847 | 21 | 163 | 17.7 | 22.5 | 0.00 | 0.00 | 0.00 | ||
| 20260505193446 | 21 | 170 | 14.5 | 27.4 | 0.00 | 0.00 | 0.00 | ||
| 20260505193045 | 21 | 173 | 14.5 | 19.3 | 0.00 | 0.00 | 0.00 | ||
| 20260505192642 | 21 | 164 | 9.7 | 16.1 | 0.00 | 0.00 | 0.00 | ||
| 20260505192234 | 22 | 180 | 9.7 | 14.5 | 0.00 | 0.00 | 0.00 |